SL-14 DEB, 45299

Orbit data source: Space-Track

SL-14 DEB, 45299 is space debris in LEO originally from a launch on Thu, 15 Aug 1991 UTC launched from the Plesetsk Missile And Space Complex (PKMTR). Debris objects in space refer to the collection of defunct objects orbiting the Earth. Examples of debris include non-operational satellites, rocket bodies, and fragments generated from explosions, collisions, or faulty payload assembly.

Loading next visibility...
Identifier
45299, 1991-056AM
Orbit
LEO
Last TLE update
17 hours ago
Origin
Manufacturer
Unknown
Mission
Spacecraft
Bus & Motor
Unknown
Mass
Unknown
Launch date (UTC)
1991-08-15 (34 years ago)
Launch vehicle
Unknown
Launch site
Plesetsk Missile And Space Complex (PKMTR)
Object type
Payload
Rocket body
Debris
Shape & HBR
Unknown
Radar Cross Section
Medium (>0.1 m² and <1 m²)

Expand to show TLE details & history

TLE from 17 hours ago
0 SL-14 DEB
1 45299U 91056AM  25181.73180411  .00000984  00000-0  26681-2 0  9998
2 45299  82.6332  60.9105 0077861 170.0179 190.2510 13.12190216256670
Epoch: 2025-06-30T17:33Z
TLE epoch observation values (Epoch: 2025-06-30T17:33:47.875Z)
Latitude
0.00002°
Longitude
-121.57637°
Altitude
1,275.701 km
Speed
7.19 km/s
True Right ascension
04h 03m 38s
True Declination
0° 00' 00"
Sunlit
Object was in daylight at epoch
Visualization orbit readout
Latitude
26.89204°
Longitude
-118.31546°
Altitude
1,263.79 km
Speed
7.204 km/s
Apparent Right ascension
06h 29m 41s
Apparent Declination
-4° 04' 29"
Sunlit
Object is in daylight
Visualization observer readout
Local Sidereal Time
21:48:44
Azimuth
64.759° ENE
Elevation
-32.671°
Doppler factor
1
Orbital elements
Apogee altitude
1,271.043 km
Perigee altitude
1,152.849 km
Semi-major axis
7,590.083 km
Eccentricity
0.00779
Inclination
82.6332°
RAAN
60.9105°
Arg. of periapsis
170.0179°
True anomaly
Unknown
Mean anomaly
190.251°
Eccentric anomaly
Unknown
Mean motion
3.28226 °/min
Orbital period
109.68 mins
BSTAR
0.0026681
Loading maneuver chart data...
Loading SW <> Apogee altitude chart data...
Loading historical data...
Loading historical data...
Loading historical data...
Loading historical data...
Loading historical data...
Loading historical data...
Loading historical data...

SL-14 DEB Visibility forecast

Observer location: undefined°, undefined°

Span
Click to sort rows by Start time (UTC) header in descending order
Start Az.
Max El. time (UTC)
Max El. Az.
Max El.
End time (UTC)
End Az.
12 mins2025-07-01 15:37:19.976Z146.462° SSE2025-07-01 15:43:19.976Z92.205° ESE29.306°2025-07-01 15:49:19.976Z29.347° NE
12 mins2025-07-01 17:28:19.976Z218.366° SW2025-07-01 17:34:19.976Z288.823° WNW34.818°2025-07-01 17:40:19.976Z352.093° N
11 mins2025-07-02 03:07:19.976Z10.328° NNE2025-07-02 03:12:19.976Z75.328° E36.238°2025-07-02 03:18:19.976Z146.911° SSE
10 mins2025-07-02 04:58:19.976Z322.265° NNW2025-07-02 05:02:19.976Z279.39° WNW25.815°2025-07-02 05:08:19.976Z219.42° SW
|